Temperature
17 17 17 17 17 17 16 16 17 17 17 15 15 14 14 14 14 14 14 14 14 14 14 14 14 14 14 13 13 13 13 13 13 13 13 13 13 13
17 17 16 16 16 16 16 16 16 16 17 16 15 15 14 14 14 14 13 14 14 14 14 14 14 14 13 13 13 13 13 13 13 13 13 13 12 12
16 16 16 16 16 16 16 16 16 16 16 16 15 14 14 14 14 13 13 13 13 14 14 14 13 13 13 13 13 13 13 13 13 12 12 12 12 12
16 16 16 16 16 16 16 16 15 15 15 15 15 14 14 14 14 14 13 13 13 13 14 14 13 13 13 13 13 13 13 12 12 12 12 12 12 12
16 16 16 16 16 16 15 15 15 15 15 15 15 14 14 14 14 14 13 13 13 13 13 13 13 13 13 13 13 13 13 12 12 12 12 12 12 12
16 16 16 16 16 15 15 15 15 15 15 15 15 15 14 14 14 14 13 13 13 13 13 13 13 13 13 13 12 12 12 12 12 12 12 12 11 11
16 16 16 16 16 16 15 15 15 15 15 15 15 15 14 14 14 14 14 13 13 13 13 13 13 13 13 13 12 12 12 12 12 12 11 11 11 11
17 16 16 16 16 16 16 15 15 15 15 15 15 15 14 14 14 14 14 13 13 13 12 12 12 12 12 12 12 12 12 12 12 12 11 11 11 11
17 17 16 16 16 16 15 15 15 15 15 14 14 14 14 14 13 13 13 13 13 13 13 13 12 12 12 12 12 12 12 12 12 11 11 11 11 11
17 17 17 16 16 16 15 15 15 15 15 14 14 14 14 13 13 13 13 13 13 13 12 12 12 12 12 12 12 12 12 12 12 11 11 11 11 11
16 16 16 16 16 16 15 15 15 14 15 14 14 14 14 14 13 13 13 13 13 13 12 12 12 12 12 12 12 12 12 12 12 11 11 11 11 10
16 16 16 16 16 16 15 15 14 14 14 14 14 14 14 14 13 13 13 13 13 13 13 12 12 12 12 12 12 12 12 12 11 11 11 11 10 10
16 16 15 16 15 15 15 15 15 14 14 14 14 14 14 14 14 13 13 13 13 13 13 12 12 12 12 12 12 12 12 12 11 11 11 11 10 10
15 15 15 15 15 15 15 15 15 14 14 14 14 14 14 14 13 13 13 13 13 12 12 12 12 12 12 12 12 12 11 11 11 11 11 11 10 10
15 15 15 15 15 14 14 14 14 14 14 14 14 14 14 13 13 13 12 12 12 12 12 12 11 11 11 11 12 11 11 11 11 10 10 10 10 10
15 15 15 14 14 14 14 14 14 14 14 13 14 14 13 13 13 13 12 12 12 12 12 12 11 11 11 11 11 11 11 11 11 10 10 10 10 10
15 14 14 14 14 14 14 14 14 13 13 13 13 13 13 13 13 13 12 12 12 12 12 11 11 11 11 11 11 11 10 10 10 10 10 10 10 9
14 14 14 14 14 14 14 14 14 13 13 13 13 13 13 13 13 12 12 12 12 12 11 11 11 11 10 10 10 10 10 10 10 10 10 10 10 9
14 14 14 14 14 14 14 14 14 13 13 13 13 12 12 12 12 12 12 12 12 11 11 11 11 11 10 10 10 10 10 10 10 10 9 9 9 9
14 14 14 14 14 13 13 13 13 13 13 13 12 12 12 12 12 12 12 11 11 11 11 11 10 10 10 10 10 10 10 10 10 9 9 9 9 9
14 14 14 14 13 13 13 13 13 13 12 12 12 12 12 12 12 12 11 11 11 11 11 11 10 10 10 10 10 10 9 9 9 9 9 9 8 8
13 13 13 13 13 13 13 12 12 12 12 12 12 12 11 11 11 11 11 11 11 11 10 10 10 10 10 10 10 9 9 9 9 9 8 8 8 8
13 13 13 13 12 12 12 12 12 12 11 11 11 11 11 11 11 11 11 11 10 10 10 10 10 10 10 9 9 9 9 9 9 8 8 8 8 8
Wind_Speed
1 1 2 1 2 2 2 2 3 2 1 2 2 2 2 2 3 2 2 5 3 3 3 3 3 3 3 3 3 3 3 4 5 5 5 5 5 6
1 1 2 2 1 2 2 3 3 3 2 0 1 2 2 2 4 2 2 6 5 4 3 3 3 3 3 3 4 4 4 5 5 5 6 6 5 6
2 2 2 2 2 2 2 3 3 3 3 1 1 2 2 3 3 3 3 4 4 7 5 4 4 4 4 3 3 4 5 5 5 6 6 6 6 6
2 2 3 2 2 3 3 3 2 3 3 3 2 2 3 4 3 4 3 4 3 8 8 7 6 6 5 5 5 5 5 6 6 6 6 6 6 6
3 3 3 2 3 2 3 3 3 3 3 4 3 2 3 3 3 4 4 3 4 7 10 10 9 8 7 7 7 7 7 7 7 7 7 7 7 6
4 3 3 3 3 3 3 3 3 3 4 4 3 3 3 3 4 4 4 4 4 4 5 7 9 11 11 10 10 9 9 8 8 8 9 9 8 8
4 4 4 3 2 3 4 3 4 4 4 5 4 4 3 3 4 4 4 4 4 4 4 5 6 7 9 11 12 11 11 10 10 10 10 10 10 10
5 4 4 4 5 6 5 5 5 5 5 5 5 5 4 4 4 5 5 5 4 4 5 5 5 6 6 7 10 12 13 13 12 12 12 12 12 12
5 5 5 4 5 6 7 9 8 7 7 8 7 6 6 5 5 7 6 6 6 4 5 6 5 6 6 6 11 14 14 15 15 15 15 14 14 14
6 6 6 5 5 5 6 6 7 7 8 8 8 8 7 5 6 7 7 7 6 5 5 6 6 6 6 6 11 15 16 16 16 17 16 16 15 15
6 6 6 6 4 5 7 7 7 6 7 8 7 7 6 5 6 6 6 6 6 5 5 6 6 6 6 6 8 14 16 16 17 18 18 18 17 16
6 6 5 6 5 6 7 7 8 7 7 7 8 8 9 8 9 8 7 7 6 5 4 5 6 5 5 5 5 7 11 14 17 18 19 19 18 13
6 6 4 6 6 7 9 8 8 8 8 8 7 7 7 6 7 7 7 8 8 7 4 5 6 6 6 5 5 6 6 7 10 12 18 20 20 15
6 5 3 6 7 8 8 7 9 9 8 7 7 7 6 6 6 6 7 8 7 8 6 6 6 6 7 7 5 5 6 6 7 7 8 13 18 20
5 2 2 6 8 9 10 10 9 8 7 8 7 7 7 6 6 5 6 7 8 9 8 8 8 7 8 8 7 6 5 5 6 6 7 8 8 9
7 5 7 9 9 8 7 8 8 8 8 8 8 7 6 6 6 6 6 5 6 6 7 8 9 8 8 8 7 7 6 5 5 6 6 7 8 9
6 6 6 6 7 7 8 7 7 7 8 8 8 7 7 7 6 6 5 5 6 6 6 6 7 8 9 8 8 7 7 6 5 5 6 7 7 7
6 6 6 7 7 7 7 7 8 7 7 7 7 7 7 7 7 6 6 6 7 7 6 5 5 6 6 6 7 8 7 6 5 5 6 7 7 6
7 8 7 8 8 8 8 7 7 7 6 7 7 7 7 7 7 7 6 6 7 7 6 5 5 6 8 8 6 8 8 7 6 5 6 6 6 6
7 8 7 7 7 7 7 7 7 6 6 7 7 7 7 7 7 8 7 7 7 7 7 7 7 7 8 8 7 5 9 8 6 6 6 5 5 4
7 8 7 7 7 7 7 7 7 7 7 7 7 7 7 7 8 7 7 7 8 8 8 8 7 8 7 6 7 6 5 8 6 5 5 5 5 4
7 8 7 7 6 6 7 7 7 7 7 7 6 6 6 7 8 9 8 8 8 8 8 7 6 6 7 8 8 7 5 4 6 6 5 5 4 5
7 7 7 7 6 6 7 7 8 8 7 7 6 7 7 7 7 7 8 8 7 8 8 8 6 6 7 7 7 6 6 5 4 4 4 4 5 4
Wind_Direction
263 235 269 286 271 268 247 258 272 278 244 165 196 173 187 158 143 177 145 124 134 130 118 111 115 125 128 131 142 150 154 153 150 149 154 157 158 164
287 319 294 287 279 265 268 265 271 279 286 249 203 173 177 184 163 190 175 152 164 160 153 143 138 138 139 136 138 137 138 142 148 150 150 153 154 157
249 239 258 291 284 268 249 246 255 262 259 264 209 149 190 235 180 207 210 209 175 167 172 174 172 171 171 168 162 157 153 155 159 160 162 161 159 164
243 247 254 247 254 268 261 258 254 250 253 255 233 194 203 220 218 229 222 217 209 164 178 190 194 191 190 192 191 184 179 177 175 171 173 173 173 174
239 244 253 257 255 255 254 256 250 237 238 243 234 214 221 213 220 229 234 236 236 184 186 197 201 200 200 201 202 201 199 195 191 187 186 185 182 181
242 244 248 248 251 255 245 244 251 253 241 246 240 223 219 212 231 235 226 217 236 223 202 201 196 200 206 207 209 209 206 203 200 198 194 193 192 190
232 234 236 240 270 266 269 251 243 250 247 242 241 237 232 222 238 243 248 238 227 237 229 216 204 208 205 208 212 211 209 207 206 204 201 200 199 200
232 237 232 223 226 222 246 261 266 253 259 259 253 254 251 246 250 255 255 252 251 222 236 240 228 228 216 211 194 199 208 210 210 210 208 206 206 206
232 240 251 236 226 238 221 220 233 242 256 263 269 269 263 255 254 250 250 256 263 249 239 251 241 242 235 215 188 196 205 211 212 212 211 210 210 211
232 233 240 246 241 251 248 241 238 231 232 243 259 265 267 264 251 253 258 250 253 249 237 255 251 248 245 223 194 199 206 211 213 213 212 212 212 215
233 235 241 241 222 245 249 252 251 245 223 228 247 256 264 250 252 257 251 250 255 247 223 244 256 257 249 239 208 198 207 212 213 213 212 212 213 214
227 227 225 242 219 227 242 250 254 256 256 239 231 237 241 231 222 241 252 253 259 256 228 235 252 254 253 243 229 210 213 213 214 215 214 214 211 218
240 234 220 191 212 227 247 252 257 262 258 253 247 241 239 236 230 231 243 251 255 257 241 222 248 250 252 258 249 235 227 223 216 220 217 215 211 216
248 248 218 182 212 229 241 251 255 257 257 256 254 250 248 245 240 236 234 240 249 259 263 248 248 249 257 262 259 247 239 232 228 228 224 209 213 219
249 264 235 210 226 232 231 236 242 248 255 256 255 254 252 250 247 237 232 232 238 247 249 243 249 251 253 260 263 257 249 242 235 231 227 221 218 216
242 225 211 220 235 252 238 233 241 247 251 255 256 256 255 248 242 243 241 237 245 247 236 234 242 250 254 260 263 263 254 247 239 235 233 232 225 223
233 240 243 240 240 241 243 242 244 243 244 250 253 254 252 246 245 242 243 249 250 256 253 238 233 233 241 258 260 256 254 249 241 232 231 237 233 229
226 241 244 247 249 250 249 248 243 241 245 247 250 251 251 249 247 244 243 245 250 252 254 253 244 242 245 244 245 259 259 254 247 232 234 241 241 238
229 245 247 248 252 254 254 256 256 250 247 248 250 251 251 251 250 249 244 244 250 254 256 255 247 244 252 259 244 222 249 256 249 239 236 241 248 243
243 253 256 256 257 259 260 260 260 260 253 251 250 251 251 251 251 251 247 247 251 255 258 255 248 246 251 262 267 250 223 240 247 246 245 248 251 237
249 253 258 260 262 263 264 263 264 261 259 259 259 255 253 252 254 255 255 248 248 252 256 257 254 241 252 259 261 257 241 215 233 247 251 249 249 241
255 258 260 259 260 262 261 262 264 262 260 256 259 262 261 258 256 256 257 256 252 256 260 261 251 242 246 250 256 258 253 233 217 231 253 256 250 244
264 264 266 264 261 264 264 259 260 264 263 262 260 259 260 262 262 261 261 260 260 262 263 265 260 248 247 249 256 261 258 243 237 227 236 227 227 234
Height
1546 1545 1545 1545 1544 1544 1544 1544 1544 1543 1543 1542 1542 1541 1540 1538 1537 1536 1535 1534 1533 1533 1532 1532 1531 1531 1531 1530 1530 1530 1531 1531 1532 1532 1533 1533 1534 1534
1544 1544 1544 1544 1544 1543 1543 1542 1542 1542 1541 1541 1541 1540 1538 1538 1536 1535 1534 1533 1532 1532 1531 1530 1530 1530 1529 1529 1529 1529 1529 1529 1530 1530 1531 1531 1532 1532
1544 1543 1543 1542 1542 1542 1542 1541 1540 1541 1540 1540 1539 1538 1536 1536 1535 1534 1534 1532 1531 1530 1530 1529 1529 1528 1527 1527 1527 1527 1527 1527 1528 1528 1529 1529 1530 1530
1543 1542 1541 1541 1540 1540 1540 1540 1539 1538 1538 1538 1537 1536 1534 1534 1533 1532 1532 1532 1530 1529 1528 1527 1527 1526 1525 1525 1525 1525 1525 1525 1526 1526 1527 1527 1528 1528
1541 1540 1540 1539 1539 1538 1537 1538 1538 1537 1536 1536 1535 1534 1533 1532 1531 1530 1530 1529 1529 1527 1526 1525 1524 1524 1523 1523 1523 1523 1523 1523 1523 1524 1524 1525 1525 1525
1539 1539 1538 1537 1537 1536 1536 1535 1535 1535 1534 1534 1533 1532 1531 1530 1529 1529 1528 1527 1526 1526 1524 1523 1522 1521 1521 1520 1520 1520 1520 1520 1520 1521 1521 1522 1522 1523
1537 1536 1536 1535 1534 1534 1534 1534 1533 1532 1532 1531 1531 1530 1529 1528 1527 1527 1526 1525 1523 1523 1522 1521 1520 1519 1518 1517 1517 1517 1517 1517 1517 1518 1518 1519 1519 1520
1534 1534 1533 1532 1531 1531 1531 1531 1530 1530 1530 1529 1528 1527 1526 1525 1525 1524 1523 1522 1521 1520 1519 1519 1518 1516 1516 1515 1514 1514 1514 1514 1514 1514 1514 1515 1516 1517
1531 1531 1531 1530 1529 1528 1527 1527 1527 1526 1526 1526 1525 1524 1523 1522 1521 1520 1519 1518 1518 1517 1515 1515 1514 1513 1512 1511 1510 1509 1509 1509 1509 1510 1510 1511 1512 1513
1527 1526 1526 1526 1526 1525 1525 1524 1523 1522 1522 1521 1520 1520 1520 1518 1517 1516 1515 1514 1513 1513 1512 1511 1510 1509 1508 1507 1506 1505 1505 1505 1505 1505 1506 1507 1508 1508
1523 1523 1522 1522 1521 1521 1521 1520 1519 1519 1518 1517 1516 1515 1514 1513 1513 1513 1512 1511 1510 1509 1508 1507 1506 1505 1504 1503 1502 1501 1500 1500 1500 1500 1501 1502 1503 1503
1519 1518 1518 1518 1518 1517 1516 1515 1515 1514 1514 1513 1512 1511 1510 1509 1508 1508 1507 1507 1506 1505 1504 1503 1502 1502 1500 1499 1498 1497 1496 1496 1495 1496 1496 1497 1498 1498
1515 1515 1514 1513 1513 1512 1512 1511 1510 1510 1510 1509 1508 1506 1505 1504 1503 1502 1502 1502 1501 1500 1500 1499 1498 1498 1497 1495 1494 1493 1492 1492 1491 1491 1491 1492 1492 1493
1511 1511 1510 1509 1508 1507 1507 1506 1506 1505 1505 1504 1503 1502 1501 1500 1499 1498 1497 1496 1496 1496 1495 1494 1493 1493 1492 1491 1490 1489 1488 1488 1487 1487 1486 1486 1487 1487
1505 1505 1505 1504 1503 1503 1502 1501 1501 1500 1500 1499 1498 1497 1496 1495 1494 1493 1492 1491 1490 1490 1490 1489 1489 1488 1488 1486 1485 1484 1483 1483 1482 1482 1481 1481 1481 1481
1499 1499 1499 1499 1499 1498 1497 1496 1495 1495 1494 1493 1492 1492 1491 1490 1489 1489 1488 1487 1486 1485 1484 1483 1483 1483 1482 1481 1481 1479 1478 1478 1477 1476 1476 1476 1476 1476
1494 1494 1494 1494 1493 1492 1491 1491 1490 1489 1488 1487 1487 1487 1486 1485 1484 1483 1482 1482 1481 1480 1479 1479 1478 1477 1476 1476 1475 1474 1473 1472 1472 1471 1471 1471 1470 1470
1489 1489 1489 1489 1488 1487 1486 1485 1485 1483 1482 1482 1481 1481 1480 1479 1478 1478 1477 1477 1475 1475 1474 1474 1473 1473 1472 1470 1469 1468 1467 1467 1466 1465 1465 1465 1464 1464
1484 1484 1483 1483 1483 1482 1481 1480 1479 1478 1477 1476 1475 1475 1474 1473 1472 1472 1471 1470 1470 1469 1469 1468 1468 1467 1466 1464 1462 1462 1462 1461 1461 1460 1459 1459 1458 1459
1479 1479 1478 1477 1477 1477 1476 1475 1474 1473 1472 1470 1470 1469 1468 1467 1466 1466 1465 1465 1464 1464 1463 1462 1462 1460 1459 1459 1458 1457 1456 1456 1455 1455 1454 1454 1454 1454
1474 1474 1473 1472 1472 1471 1470 1469 1468 1467 1466 1465 1464 1463 1463 1462 1461 1460 1460 1459 1458 1458 1457 1456 1455 1455 1455 1454 1453 1451 1451 1450 1450 1450 1450 1450 1449 1449
1470 1469 1468 1467 1466 1465 1464 1463 1463 1461 1460 1459 1458 1458 1457 1457 1456 1455 1454 1453 1453 1452 1451 1451 1450 1450 1449 1448 1447 1446 1446 1445 1445 1445 1445 1445 1444 1444
1465 1464 1463 1461 1460 1459 1458 1458 1457 1456 1455 1454 1453 1452 1451 1451 1450 1449 1449 1448 1447 1446 1446 1445 1445 1444 1443 1443 1442 1441 1441 1441 1441 1440 1440 1439 1440 1440